| time (UTC) | temp F | wind direction | speed MPH | gust MPH | rain 1hr in | rain 24hr in | rain mn in | humidity % | barometer mb |
| 20260503003040 | 65 | 360 | 2.0 | 6.0 | 0.00 | 0.00 | 0.00 | 34 | 1014.7 |
| 20260503001539 | 65 | 360 | 6.0 | 9.0 | 0.00 | 0.00 | 0.00 | 34 | 1014.8 |
| 20260503000051 | 65 | 360 | 1.0 | 9.0 | 0.00 | 0.00 | 0.00 | 34 | 1015.0 |
| 20260502234539 | 67 | 360 | 2.0 | 5.0 | 0.00 | 0.00 | 0.00 | 33 | 1015.1 |
| 20260502233038 | 67 | 360 | 3.0 | 6.0 | 0.00 | 0.00 | 0.00 | 33 | 1015.2 |
| 20260502231540 | 67 | 360 | 4.0 | 8.0 | 0.00 | 0.00 | 0.00 | 33 | 1015.3 |
| 20260502230035 | 67 | 360 | 4.0 | 9.0 | 0.00 | 0.00 | 0.00 | 33 | 1015.5 |
| 20260502224535 | 66 | 360 | 2.0 | 6.0 | 0.00 | 0.00 | 0.00 | 33 | 1015.8 |
| 20260502223034 | 66 | 360 | 2.0 | 6.0 | 0.00 | 0.00 | 0.00 | 33 | 1016.0 |
| 20260502221536 | 66 | 360 | 0.0 | 4.0 | 0.00 | 0.00 | 0.00 | 34 | 1016.1 |
| 20260502220036 | 66 | 360 | 4.0 | 9.0 | 0.00 | 0.00 | 0.00 | 33 | 1016.3 |
| 20260502214532 | 68 | 360 | 5.0 | 13.0 | 0.00 | 0.00 | 0.00 | 30 | 1016.4 |
| 20260502213030 | 69 | 360 | 6.0 | 10.0 | 0.00 | 0.00 | 0.00 | 30 | 1016.6 |
| 20260502211529 | 66 | 360 | 0.0 | 4.0 | 0.00 | 0.00 | 0.00 | 32 | 1016.7 |
| 20260502210028 | 68 | 360 | 3.0 | 10.0 | 0.00 | 0.00 | 0.00 | 31 | 1016.8 |
| 20260502204527 | 67 | 360 | 2.0 | 12.0 | 0.00 | 0.00 | 0.00 | 33 | 1016.9 |
| 20260502203026 | 67 | 360 | 6.0 | 14.0 | 0.00 | 0.00 | 0.00 | 31 | 1017.1 |
| 20260502201525 | 67 | 360 | 3.0 | 9.0 | 0.00 | 0.00 | 0.00 | 33 | 1017.1 |
| 20260502200020 | 64 | 360 | 7.0 | 13.0 | 0.00 | 0.00 | 0.00 | 37 | 1017.3 |
| 20260502194518 | 63 | 360 | 4.0 | 10.0 | 0.00 | 0.00 | 0.00 | 36 | 1017.6 |
| 20260502193018 | 63 | 360 | 2.0 | 9.0 | 0.00 | 0.00 | 0.00 | 38 | 1017.7 |
| 20260502191512 | 62 | 360 | 2.0 | 8.0 | 0.00 | 0.00 | 0.00 | 39 | 1018.1 |
| 20260502190009 | 61 | 360 | 5.0 | 9.0 | 0.00 | 0.00 | 0.00 | 41 | 1018.2 |
| 20260502184510 | 61 | 360 | 3.0 | 8.0 | 0.00 | 0.00 | 0.00 | 41 | 1018.2 |
| 20260502183009 | 61 | 360 | 2.0 | 8.0 | 0.00 | 0.00 | 0.00 | 39 | 1018.3 |
| 20260502181509 | 61 | 360 | 4.0 | 11.0 | 0.00 | 0.00 | 0.00 | 39 | 1018.3 |
| 20260502163100 | 60 | 360 | 10.0 | 17.0 | 0.00 | 0.00 | 0.00 | 44 | 1018.4 |
| 20260502161623 | 59 | 360 | 10.0 | 14.0 | 0.00 | 0.00 | 0.00 | 45 | 1018.3 |
| 20260502160125 | 58 | 360 | 11.0 | 14.0 | 0.00 | 0.00 | 0.00 | 46 | 1018.3 |
| 20260502151553 | 59 | 360 | 7.0 | 11.0 | 0.00 | 0.00 | 0.00 | 46 | 1018.2 |
| 20260502123054 | 43 | 360 | 3.0 | 4.0 | 0.00 | 0.00 | 0.00 | 67 | 1017.9 |
| 20260502121526 | 43 | 360 | 3.0 | 4.0 | 0.00 | 0.00 | 0.00 | 66 | 1017.8 |
| 20260502114525 | 46 | 360 | 2.0 | 4.0 | 0.00 | 0.00 | 0.00 | 60 | 1017.5 |
| 20260502113024 | 46 | 360 | 4.0 | 9.0 | 0.00 | 0.00 | 0.00 | 59 | 1017.4 |
| 20260502111524 | 47 | 360 | 6.0 | 13.0 | 0.00 | 0.00 | 0.00 | 57 | 1016.8 |
| 20260502110019 | 48 | 360 | 8.0 | 13.0 | 0.00 | 0.00 | 0.00 | 56 | 1016.8 |
| 20260502104518 | 48 | 360 | 5.0 | 14.0 | 0.00 | 0.00 | 0.00 | 56 | 1016.6 |
| 20260502103017 | 48 | 360 | 5.0 | 10.0 | 0.00 | 0.00 | 0.00 | 56 | 1016.6 |
| 20260502101514 | 46 | 360 | 4.0 | 6.0 | 0.00 | 0.00 | 0.00 | 57 | 1016.2 |
| 20260502091512 | 47 | 360 | 2.0 | 4.0 | 0.00 | 0.00 | 0.00 | 53 | 1016.1 |
| 20260502070048 | 44 | 360 | 3.0 | 5.0 | 0.00 | 0.00 | 0.00 | 60 | 1014.6 |
| 20260502064547 | 44 | 360 | 4.0 | 5.0 | 0.00 | 0.00 | 0.00 | 62 | 1014.6 |
| 20260502063055 | 45 | 360 | 3.0 | 6.0 | 0.00 | 0.00 | 0.00 | 62 | 1014.5 |
| 20260502061542 | 46 | 360 | 5.0 | 8.0 | 0.00 | 0.00 | 0.00 | 60 | 1014.6 |
| 20260502060042 | 45 | 360 | 5.0 | 11.0 | 0.00 | 0.00 | 0.00 | 61 | 1014.5 |
| 20260502054540 | 45 | 360 | 5.0 | 9.0 | 0.00 | 0.00 | 0.00 | 56 | 1014.5 |
| 20260502053041 | 47 | 360 | 4.0 | 10.0 | 0.00 | 0.00 | 0.00 | 56 | 1014.4 |
| 20260502051538 | 49 | 360 | 2.0 | 4.0 | 0.00 | 0.00 | 0.00 | 51 | 1014.4 |
| 20260502050043 | 50 | 360 | 4.0 | 8.0 | 0.00 | 0.00 | 0.00 | 49 | 1014.5 |
| 20260502044537 | 50 | 360 | 2.0 | 4.0 | 0.00 | 0.00 | 0.00 | 44 | 1014.4 |
| 20260502043036 | 49 | 360 | 2.0 | 6.0 | 0.00 | 0.00 | 0.00 | 45 | 1014.3 |
| 20260502041537 | 51 | 360 | 0.0 | 5.0 | 0.00 | 0.00 | 0.00 | 43 | 1014.2 |
| 20260502040035 | 52 | 360 | 0.0 | 3.0 | 0.00 | 0.00 | 0.00 | 42 | 1014.1 |
| 20260502034535 | 54 | 360 | 0.0 | 3.0 | 0.00 | 0.00 | 0.00 | 43 | 1014.1 |
| 20260502033042 | 56 | 360 | 2.0 | 5.0 | 0.00 | 0.00 | 0.00 | 41 | 1014.0 |
| 20260502031534 | 62 | 360 | 1.0 | 5.0 | 0.00 | 0.00 | 0.00 | 30 | 1013.8 |
| 20260502030033 | 64 | 360 | 4.0 | 6.0 | 0.00 | 0.00 | 0.00 | 24 | 1013.6 |
| 20260502024532 | 63 | 360 | 4.0 | 6.0 | 0.00 | 0.00 | 0.00 | 26 | 1013.4 |
| 20260502023032 | 65 | 360 | 4.0 | 6.0 | 0.00 | 0.00 | 0.00 | 24 | 1013.3 |
| 20260502021531 | 66 | 360 | 4.0 | 6.0 | 0.00 | 0.00 | 0.00 | 23 | 1013.2 |
| 20260502020030 | 67 | 360 | 3.0 | 6.0 | 0.00 | 0.00 | 0.00 | 24 | 1013.2 |
| 20260502014533 | 68 | 360 | 3.0 | 6.0 | 0.00 | 0.00 | 0.00 | 23 | 1013.2 |
| 20260502013028 | 70 | 360 | 2.0 | 8.0 | 0.00 | 0.00 | 0.00 | 22 | 1013.3 |
| 20260502011529 | 71 | 360 | 3.0 | 8.0 | 0.00 | 0.00 | 0.00 | 21 | 1013.4 |
| 20260502010030 | 73 | 360 | 6.0 | 12.0 | 0.00 | 0.00 | 0.00 | 20 | 1013.5 |
| 20260502004544 | 73 | 360 | 8.0 | 12.0 | 0.00 | 0.00 | 0.00 | 19 | 1013.6 |